Location: ????????
(55.6189°N, 38.3031°E)
Time: 22:08:11
(UTC+00:00)

Cosmos 1766 Rocket - Pass Details

Date: 15 November 2019
Orbit: 606 x 632 km, 82.5° (Epoch: 13 December)

Event Time Altitude Azimuth Distance (km) Brightness Sun altitude
Rises 02:53:01 0° 184° (S) 2,855 7.0 -17.6°
Reaches altitude 10° 02:55:13 10° 183° (S) 1,957 6.2 -17.3°
Maximum altitude 02:59:32 73° 99° (E) 641 3.7 -16.7°
Drops below altitude 10° 03:03:54 10° 15° (NNE) 1,981 6.2 -16.1°
Sets 03:06:08 0° 14° (NNE) 2,894 7.1 -15.8°
